Regional Weather Roundup
Issued by NWS

Home | Current Version | Previous Version | Graphics & Text | Print | Product List | Glossary On
Versions: 1 2 3 4 5 6 7 8 9 10 11 12 13 14 15 16 17 18 19 20 21 22 23 24 25 26 27 28 29 30 31 32 33 34 35 36 37 38 39 40 41 42 43 44 45 46 47 48 49 50
000
ASUS43 KMPX 241201
RWRMN
WEATHER ROUNDUP FOR MINNESOTA
NATIONAL WEATHER SERVICE TWIN CITIES/CHANHASSEN MN
600 AM CST FRI FEB 24 2017


NOTE: "FAIR" INDICATES FEW OR NO CLOUDS BELOW 12,000 FEET WITH NO
SIGNIFICANT WEATHER AND/OR OBSTRUCTIONS TO VISIBILITY. N/A MEANS
CURRENT SKY AND/OR WEATHER CONDITIONS ARE NOT AVAILABLE.

MNZ060>063-068>070-241300-
   Twin Cities Metro

CITY           SKY/WX    TMP DP  RH WIND       PRES   REMARKS
TWIN CITIES    CLOUDY    26  15  63 N24       29.80F WCI  11
6HR MIN TEMP:  26; 6HR MAX TEMP:  29;

ST PAUL        CLOUDY    27  18  69 N16G28    29.82F WCI  15
CRYSTAL        CLOUDY    24  13  62 N18G26    29.82F WCI  10
BLAINE         CLOUDY    27  18  69 N18G24    29.82F WCI  13
LAKEVILLE      CLOUDY    25  19  80 N14G22    29.79R WCI  13
EDEN PRAIRIE   CLOUDY    26  15  63 N20G26    29.79F WCI  12
6HR MIN TEMP:  26; 6HR MAX TEMP:  29;

SOUTH ST PAUL  CLOUDY    28  18  67 N15G23    29.79F WCI  16
LAKE ELMO      CLOUDY    28  19  69 N12G20    29.81F WCI  18
$$
MNZ001>005-007-008-013>017-022>024-027-028-241300-
   Northwest Minnesota

CITY           SKY/WX    TMP DP  RH WIND       PRES   REMARKS
BEMIDJI        CLOUDY     8   4  86 NW6       30.04F WCI  -3
HALLOCK        CLOUDY    12   7  79 N7        30.14R WCI   2
ROSEAU         CLEAR      5   0  78 CALM      30.11S
WARROAD        CLEAR      3   0  85 NW3       30.11R
THIEF RVR FALL CLEAR      9   5  84 N7        30.12R WCI  -2
CROOKSTON      CLEAR     16   7  67 N7        30.14S WCI   6
FOSSTON        CLEAR     10   5  79 N9        30.09R WCI  -2
DETROIT LAKES  CLOUDY    14   9  79 N3        30.05F
MOORHEAD       PTCLDY    18  10  73 N15       30.11S WCI   3
PARK RAPIDS    CLOUDY    12   4  70 N10       30.00F WCI  -1
MAHNOMEN       FAIR      13   6  70 N12       30.07S WCI   0
$$
MNZ006-009>011-018-025>026-241300-
   North Central Minnesota

CITY           SKY/WX    TMP DP  RH WIND       PRES   REMARKS
BAUDETTE       CLEAR      4   0  83 NW3       30.08R
FLAG ISLAND    CLEAR      5   1  85 NW5       30.10R WCI  -4
INTL FALLS     CLOUDY    10   2  69 N5        30.06R WCI   2
6HR MIN TEMP:   9; 6HR MAX TEMP:  14;

WASKISH        CLEAR      7   3  85 N3        30.07R
BIG FORK       CLOUDY     9   5  85 N5        30.03R WCI   0
LONGVILLE      CLOUDY    12   9  85 N5        30.01S WCI   4
GRAND RAPIDS   CLOUDY    13   8  81 N7        30.01S WCI   3
CRANE LAKE     CLOUDY    10   3  72 N5        30.05S WCI   2
ORR            CLOUDY    10   3  72 CALM      29.99S
COOK           CLOUDY    12   5  73 N3        30.00F
WALKER         FAIR      10   5  82 N7        30.02F WCI  -2
$$
MNZ012-019>021-037-241300-
   Northeast Minnesota

CITY           SKY/WX    TMP DP  RH WIND       PRES   REMARKS
DULUTH         CLOUDY    18  12  77 N9        29.93S WCI   7
6HR MIN TEMP:  18; 6HR MAX TEMP:  21;

ELY            CLOUDY    12   3  67 N3        29.97S
HIBBING        PTCLDY    13   7  77 N8        29.97F WCI   2
EVELETH        PTCLDY    15   3  59 N9        29.98S WCI   3
DULUTH HARBOR  CLOUDY    25  16  68 N18       29.98F WCI  11
TWO HARBORS    CLOUDY    19  12  73 NE8       29.95R WCI   9
SILVER BAY     CLOUDY    18   9  68 N5        29.96R WCI  11
GRAND MARAIS     N/A     17   4  56 NE7       30.03R WCI   8
G MARAIS ARPRT CLOUDY     7  -2  66 N12       29.92S WCI  -9
$$
MNZ029>031-032-039>041-046>048-054>057-064-241300-
   West Central Minnesota

CITY           SKY/WX    TMP DP  RH WIND       PRES   REMARKS
FERGUS FALLS   PTCLDY    16   9  73 N17G23    30.06F WCI   0
WHEATON        CLOUDY    18  10  73 N20       30.05S WCI   1
MORRIS         CLOUDY    19  12  73 N21       29.98R WCI   3
ALEXANDRIA     CLOUDY    18   9  68 N17       29.96R WCI   3
ELBOW LAKE     FAIR      17  10  73 NE16      30.00S WCI   2
WADENA         CLOUDY    14   9  79 N13G20    29.98F WCI   0
GLENWOOD       CLOUDY    18  12  79 N14G21    29.95R WCI   4
APPLETON       CLOUDY    21  14  73 N20       29.97R WCI   6
BENSON         CLOUDY    23  10  58 NE16G24   29.97R WCI  10
ORTONVILLE     CLOUDY    19  10  68 N22       29.99R WCI   3
MADISON        PTCLDY    25  16  68 N23G31    29.97R WCI  10
WILLMAR        FAIR      23  16  74 N20G25    29.91S WCI   8
$$
MNZ033>034-036-042>043-049>051-058-059-241300-
   Central Minnesota

CITY           SKY/WX    TMP DP  RH WIND       PRES   REMARKS
ST CLOUD       CLOUDY    21  12  68 N17G25    29.90F WCI   7
6HR MIN TEMP:  21; 6HR MAX TEMP:  26;

SAUK CENTRE    FAIR      19  10  69 N16G24    29.95R WCI   4
PAYNESVILLE    CLOUDY    21  13  70 N21G30    29.91R WCI   6
AITKIN         MOCLDY    18  10  73 N10       29.96F WCI   6
PINE RIVER     CLOUDY    14   9  79 N12G18    30.02F WCI   0
BRAINERD       CLOUDY    16   9  74 N12       29.97F WCI   3
STAPLES        MOCLDY    14   9  79 N13       29.98S WCI   0
LONG PRAIRIE   FAIR      18  10  73 NW12G21   29.95S WCI   5
LITTLE FALLS   CLOUDY    19  10  68 N6        29.96S WCI  11
LITCHFIELD     CLOUDY    23  16  74 N15G24    29.88S WCI  10
BUFFALO        CLOUDY    23  14  68 N15G23    29.86F WCI  10
MAPLE LAKE     CLOUDY    23  17  75 N17G25    29.87F WCI  10
HUTCHINSON     CLOUDY    24  16  72 N18G24    29.84F WCI  10
$$
MNZ037-044-045-052-053-241300-
   East Central Minnesota

CITY           SKY/WX    TMP DP  RH WIND       PRES   REMARKS
PRINCETON      MOCLDY    23  14  68 N16G25    29.88F WCI  10
MORA           MOCLDY    21  12  68 N6        29.92F WCI  14
CAMBRIDGE      PTCLDY    25  14  63 N10G23    29.86F WCI  15
RUSH CITY      CLOUDY    23  16  74 N16G23    29.89F WCI  10
MOOSE LAKE     CLOUDY    21  14  73 N12       29.93S WCI   9
HINCKLEY       PTSUNNY   23  16  74 N15       29.91F WCI  10
CLOQUET        CLOUDY    18  12  79 N9G16     29.94S WCI   6
MCGREGOR       CLOUDY    19  14  79 N9        29.97F WCI   9
$$
MNZ071>073-080-081-089-090-097-098-241300-
   Southwest Minnesota

CITY           SKY/WX    TMP DP  RH WIND       PRES   REMARKS
MONTEVIDEO     CLOUDY    21  16  79 NE23G29   29.94S WCI   5
GRANITE FALLS  CLOUDY    25  17  72 N18G31    29.91S WCI  11
CANBY          CLOUDY    23  16  75 N24G30    29.95R WCI   6
MARSHALL       CLOUDY    22  16  78 N24       29.89R WCI   5
REDWOOD FALLS  CLOUDY    24  13  62 N12G29    29.87R WCI  13
OLIVIA         CLOUDY    23  18  80 N26       29.86F WCI   6
PIPESTONE      CLOUDY    21  16  79 NE26G33   29.83R WCI   4
WINDOM         CLOUDY    21  18  86 N25G35    29.79R FOG     WCI   4
WORTHINGTON    LGT SNOW  22  18  85 N24G32    29.79R FOG     WCI   5
JACKSON        LGT SNOW  23  19  86 VRB20G29  29.77R WCI   8
TRACY          CLOUDY    24  18  77 N22G30    29.86R WCI   9
SLAYTON        CLOUDY    21  18  88 N24G32    29.82S FOG     WCI   5
$$
MNZ065>067-074>077-082>085-091>093-241300-
   South Central Minnesota

CITY           SKY/WX    TMP DP  RH WIND       PRES   REMARKS
MANKATO          N/A     25  19  78 N22G31    29.77R WCI  10
NEW ULM        CLOUDY    25  16  68 N16G26    29.80R WCI  12
ST JAMES       CLOUDY    25  19  80 N22       29.80R WCI  10
FAIRMONT       CLOUDY    24  21  88 N24G30    29.74R WCI   8
GLENCOE        CLOUDY    25  19  77 N17G25    29.82S WCI  12
FARIBAULT      LGT SNOW  25  21  86 N17G23    29.76R WCI  11
OWATONNA         N/A     25  21  86 N18G25    29.73S WCI  11
WASECA         CLOUDY    27  23  86 N23       29.75R WCI  12
ALBERT LEA     CLOUDY    27  25  93 N22G30    29.67F FOG     WCI  12
$$
MNZ078>079-086>088-094>096-241300-
   Southeast Minnesota

CITY           SKY/WX    TMP DP  RH WIND       PRES   REMARKS
ROCHESTER      CLOUDY    27  25  92 N23       29.68R WCI  12
6HR MIN TEMP:  27; 6HR MAX TEMP:  30; 6HR PCP:  0.18;

RED WING       LGT SNOW  28  25  86 NE13G20   29.76F WCI  18
STANTON        LGT SNOW  27  24  89 NE21      29.76R WCI  13
WINONA         LGT SNOW  30  28  93 NE8       29.73F WCI  23
AUSTIN           N/A     27  25  93 NE20G25   29.65F WCI  13
PRESTON        CLOUDY    27  26  94 NE21G29   29.65S WCI  14
$$
ABBREVIATIONS USED IN REMARKS
   TC - TEMPERATURES IN CELSIUS
  WCI - WIND CHILL INDEX
   HX - HEAT INDEX
  VSB - VISIBILITY
$$




USA.gov is the U.S. government's official web portal to all federal, state and local government web resources and services.